,,Stat5,,Stat1,,Stat2,,Stat3,,Stat4,,Wind1,,Wind1,
time,status,PA1M_AVG,status,PR1M_SUM,status,RH1M_AVG,status,SR1M_AVG,status,TA1M_AVG,status,W1dAve1m,status,W1sAve1m,
2003-09-18, 00:00:00,VALID,919.393,VALID,0,VALID,93.833,VALID,0,VALID,19.6968,VALID,26,VALID,0.828814,
2003-09-18, 00:01:00,VALID,919.379,VALID,0,VALID,93.5062,VALID,0,VALID,19.7199,VALID,24,VALID,0.819878,
2003-09-18, 00:02:00,VALID,919.372,VALID,0,VALID,93.215,VALID,-0.0339617,VALID,19.7166,VALID,20,VALID,0.676809,
2003-09-18, 00:03:00,VALID,919.366,VALID,0,VALID,93.0853,VALID,0,VALID,19.6935,VALID,14,VALID,0.354241,
2003-09-18, 00:04:00,VALID,919.349,VALID,0,VALID,92.9632,VALID,-0.0339617,VALID,19.6878,VALID,14,VALID,0.299805,
2003-09-18, 00:05:00,VALID,919.344,VALID,0,VALID,93.1552,VALID,-0.0169808,VALID,19.6553,VALID,37,VALID,0.516314,
2003-09-18, 00:06:00,VALID,919.333,VALID,0,VALID,93.0484,VALID,0,VALID,19.6327,VALID,78,VALID,1.0204,
2003-09-18, 00:07:00,VALID,919.313,VALID,0,VALID,92.5194,VALID,0,VALID,19.6749,VALID,40,VALID,0.770703,
2003-09-18, 00:08:00,VALID,919.318,VALID,0,VALID,91.8187,VALID,0,VALID,19.6973,VALID,31,VALID,0.173884,
2003-09-18, 00:09:00,VALID,919.318,VALID,0,VALID,91.9243,VALID,-0.0339617,VALID,19.6878,VALID,66,VALID,0.467578,
2003-09-18, 00:10:00,VALID,919.318,VALID,0,VALID,92.0985,VALID,0,VALID,19.665,VALID,62,VALID,0.422492,
2003-09-18, 00:11:00,VALID,919.319,VALID,0,VALID,92.4126,VALID,0,VALID,19.665,VALID,62,VALID,0.394231,
2003-09-18, 00:12:00,VALID,919.306,VALID,0,VALID,92.3706,VALID,0,VALID,19.6846,VALID,61,VALID,0.488692,
2003-09-18, 00:13:00,VALID,919.277,VALID,0,VALID,92.0972,VALID,0,VALID,19.7363,VALID,67,VALID,0.544471,
2003-09-18, 00:14:00,VALID,919.251,VALID,0,VALID,92.0629,VALID,-0.0169808,VALID,19.7753,VALID,86,VALID,0.660773,
2003-09-18, 00:15:00,VALID,919.232,VALID,0,VALID,92.1265,VALID,0,VALID,19.7941,VALID,97,VALID,0.194712,
2003-09-18, 00:16:00,VALID,919.204,VALID,0,VALID,92.1227,VALID,-0.0169808,VALID,19.7782,VALID,98,VALID,0.129729,
2003-09-18, 00:17:00,VALID,919.184,VALID,0,VALID,92.2384,VALID,-0.0339617,VALID,19.7623,VALID,104,VALID,0.160056,
2003-09-18, 00:18:00,VALID,919.166,VALID,0,VALID,92.5067,VALID,0,VALID,19.7204,VALID,104,VALID,0,
2003-09-18, 00:19:00,VALID,919.151,VALID,0,VALID,92.6809,VALID,0,VALID,19.6684,VALID,107,VALID,0.106571,
2003-09-18, 00:20:00,VALID,919.138,VALID,0,VALID,93.2213,VALID,-0.0169808,VALID,19.62,VALID,147,VALID,0.439556,
2003-09-18, 00:21:00,VALID,919.113,VALID,0,VALID,93.8393,VALID,-0.0339617,VALID,19.575,VALID,151,VALID,0.145833,
2003-09-18, 00:22:00,VALID,919.1,VALID,0,VALID,94.3302,VALID,-0.0339617,VALID,19.5328,VALID,151,VALID,0.182566,
2003-09-18, 00:23:00,VALID,919.07,VALID,0,VALID,94.8286,VALID,0,VALID,19.5137,VALID,148,VALID,0.330929,
2003-09-18, 00:24:00,VALID,919.067,VALID,0,VALID,95.247,VALID,0,VALID,19.5045,VALID,130,VALID,0.516036,
2003-09-18, 00:25:00,VALID,919.065,VALID,0,VALID,95.6005,VALID,-0.0169808,VALID,19.4781,VALID,123,VALID,0.484375,
2003-09-18, 00:26:00,VALID,919.061,VALID,0,VALID,95.7696,VALID,-0.0339617,VALID,19.4396,VALID,122,VALID,0.730058,
2003-09-18, 00:27:00,VALID,919.052,VALID,0,VALID,95.9362,VALID,-0.0169808,VALID,19.3718,VALID,129,VALID,0.520433,
2003-09-18, 00:28:00,VALID,919.059,VALID,0,VALID,96.0799,VALID,0,VALID,19.3231,VALID,129,VALID,0.527138,
2003-09-18, 00:29:00,VALID,919.043,VALID,0,VALID,96.3393,VALID,0,VALID,19.2876,VALID,129,VALID,0.553085,
2003-09-18, 00:30:00,VALID,919.031,VALID,0,VALID,96.4512,VALID,0,VALID,19.2715,VALID,128,VALID,0.502878,
2003-09-18, 00:31:00,VALID,919.016,VALID,0,VALID,96.1727,VALID,-0.0169808,VALID,19.2263,VALID,90,VALID,0.708934,
2003-09-18, 00:32:00,VALID,919.017,VALID,0,VALID,96.6928,VALID,0,VALID,19.2131,VALID,98,VALID,0.725123,
2003-09-18, 00:33:00,VALID,919.011,VALID,0,VALID,96.7411,VALID,0,VALID,19.236,VALID,128,VALID,0.663462,
2003-09-18, 00:34:00,VALID,919.002,VALID,0,VALID,96.5847,VALID,0,VALID,19.2424,VALID,132,VALID,0.657895,
2003-09-18, 00:35:00,VALID,919,VALID,0,VALID,96.7488,VALID,-0.0169808,VALID,19.2653,VALID,128,VALID,1.2512,
2003-09-18, 00:36:00,VALID,919.006,VALID,0,VALID,96.8594,VALID,0,VALID,19.2807,VALID,130,VALID,1.10526,
2003-09-18, 00:37:00,VALID,919.009,VALID,0,VALID,96.8111,VALID,0,VALID,19.2973,VALID,133,VALID,0.899439,
2003-09-18, 00:38:00,VALID,919.018,VALID,0,VALID,97.0222,VALID,0,VALID,19.3072,VALID,129,VALID,1.22163,
2003-09-18, 00:39:00,VALID,919.011,VALID,0,VALID,97.2065,VALID,0,VALID,19.3197,VALID,130,VALID,1.08894,
2003-09-18, 00:40:00,VALID,919.024,VALID,0,VALID,97.335,VALID,-0.0509425,VALID,19.3395,VALID,126,VALID,0.886308,
2003-09-18, 00:41:00,VALID,919.025,VALID,0,VALID,97.3808,VALID,0,VALID,19.3589,VALID,125,VALID,0.898638,
2003-09-18, 00:42:00,VALID,919.03,VALID,0,VALID,97.3146,VALID,-0.0339617,VALID,19.3852,VALID,120,VALID,0.818257,
2003-09-18, 00:43:00,VALID,919.031,VALID,0,VALID,97.1633,VALID,-0.0169808,VALID,19.4014,VALID,124,VALID,0.752003,
2003-09-18, 00:44:00,VALID,919.02,VALID,0,VALID,97.073,VALID,-0.0169808,VALID,19.4006,VALID,124,VALID,0.746916,
2003-09-18, 00:45:00,VALID,918.999,VALID,0,VALID,97.0349,VALID,0.0169808,VALID,19.4133,VALID,122,VALID,0.648438,
2003-09-18, 00:46:00,VALID,918.967,VALID,0,VALID,96.4868,VALID,-0.0169808,VALID,19.3979,VALID,122,VALID,0.42537,
2003-09-18, 00:47:00,VALID,918.941,VALID,0,VALID,96.2147,VALID,0,VALID,19.349,VALID,121,VALID,0.151242,
2003-09-18, 00:48:00,VALID,918.927,VALID,0,VALID,96.1918,VALID,0,VALID,19.3172,VALID,121,VALID,0.148026,
2003-09-18, 00:49:00,VALID,918.915,VALID,0,VALID,96.2694,VALID,-0.0339617,VALID,19.2849,VALID,122,VALID,0.399239,
2003-09-18, 00:50:00,VALID,918.913,VALID,0,VALID,96.2694,VALID,0.0169808,VALID,19.2551,VALID,122,VALID,0.268914,
2003-09-18, 00:51:00,VALID,918.903,VALID,0,VALID,96.3253,VALID,0,VALID,19.236,VALID,123,VALID,0.409455,
2003-09-18, 00:52:00,VALID,918.911,VALID,0,VALID,96.5313,VALID,0,VALID,19.227,VALID,135,VALID,0.378084,
2003-09-18, 00:53:00,VALID,918.921,VALID,0,VALID,96.7971,VALID,-0.0169808,VALID,19.2265,VALID,135,VALID,0.4377,
2003-09-18, 00:54:00,VALID,918.914,VALID,0,VALID,96.8861,VALID,0,VALID,19.2362,VALID,130,VALID,0.506168,
2003-09-18, 00:55:00,VALID,918.91,VALID,0,VALID,96.7717,VALID,-0.101885,VALID,19.2307,VALID,127,VALID,0.438101,
2003-09-18, 00:56:00,VALID,918.908,VALID,0,VALID,96.4652,VALID,-0.101885,VALID,19.2054,VALID,113,VALID,0.56435,
2003-09-18, 00:57:00,VALID,918.911,VALID,0,VALID,96.6458,VALID,-0.0339617,VALID,19.1756,VALID,103,VALID,0.68109,
2003-09-18, 00:58:00,VALID,918.913,VALID,0,VALID,96.736,VALID,0,VALID,19.1488,VALID,97,VALID,0.491982,
2003-09-18, 00:59:00,VALID,918.932,VALID,0,VALID,96.0634,VALID,0,VALID,19.1038,VALID,97,VALID,0.327724,
2003-09-18, 01:00:00,VALID,918.921,VALID,0,VALID,96.1117,VALID,-0.0169808,VALID,19.027,VALID,97,VALID,0.571957,
2003-09-18, 01:01:00,VALID,918.917,VALID,0,VALID,96.3596,VALID,0,VALID,19.0134,VALID,97,VALID,0.189103,
2003-09-18, 01:02:00,VALID,918.899,VALID,0,VALID,96.628,VALID,-0.0169808,VALID,18.9973,VALID,97,VALID,0.147615,
2003-09-18, 01:03:00,VALID,918.886,VALID,0,VALID,96.2821,VALID,-0.0169808,VALID,18.9846,VALID,97,VALID,0,
2003-09-18, 01:04:00,VALID,918.878,VALID,0,VALID,95.9133,VALID,-0.0339617,VALID,18.9106,VALID,97,VALID,0.0254934,
2003-09-18, 01:05:00,VALID,918.86,VALID,0,VALID,95.7569,VALID,0,VALID,18.8591,VALID,97,VALID,0,
2003-09-18, 01:06:00,VALID,918.844,VALID,0,VALID,95.8942,VALID,-0.0169808,VALID,18.7976,VALID,97,VALID,0,
2003-09-18, 01:07:00,VALID,918.842,VALID,0,VALID,96.5809,VALID,-0.0169808,VALID,18.7941,VALID,97,VALID,0,
2003-09-18, 01:08:00,VALID,918.841,VALID,0,VALID,96.4805,VALID,-0.0169808,VALID,18.768,VALID,97,VALID,0,
2003-09-18, 01:09:00,VALID,918.849,VALID,0,VALID,96.6674,VALID,0,VALID,18.736,VALID,59,VALID,0.258814,
2003-09-18, 01:10:00,VALID,918.864,VALID,0,VALID,97.1137,VALID,0,VALID,18.7355,VALID,54,VALID,0.0378289,
2003-09-18, 01:11:00,VALID,918.871,VALID,0,VALID,97.5779,VALID,-0.0169808,VALID,18.7807,VALID,54,VALID,0,
2003-09-18, 01:12:00,VALID,918.879,VALID,0,VALID,97.8373,VALID,-0.0339617,VALID,18.8656,VALID,54,VALID,0,
2003-09-18, 01:13:00,VALID,918.881,VALID,0,VALID,97.8678,VALID,-0.0169808,VALID,18.914,VALID,54,VALID,0,
2003-09-18, 01:14:00,VALID,918.885,VALID,0,VALID,97.8195,VALID,-0.0169808,VALID,18.959,VALID,54,VALID,0,
2003-09-18, 01:15:00,VALID,918.871,VALID,0,VALID,97.7203,VALID,-0.0339617,VALID,18.998,VALID,54,VALID,0,
2003-09-18, 01:16:00,VALID,918.84,VALID,0,VALID,97.2612,VALID,-0.0169808,VALID,18.9975,VALID,54,VALID,0,
2003-09-18, 01:17:00,VALID,918.824,VALID,0,VALID,97.3172,VALID,0,VALID,19.0107,VALID,54,VALID,0,
2003-09-18, 01:18:00,VALID,918.789,VALID,0,VALID,97.0921,VALID,-0.0169808,VALID,19.0365,VALID,54,VALID,0,
2003-09-18, 01:19:00,VALID,918.777,VALID,0,VALID,96.7589,VALID,-0.0339617,VALID,19.0273,VALID,54,VALID,0,
2003-09-18, 01:20:00,VALID,918.767,VALID,0,VALID,96.5033,VALID,-0.0339617,VALID,18.9881,VALID,54,VALID,0,
2003-09-18, 01:21:00,VALID,918.744,VALID,0,VALID,96.1702,VALID,-0.0169808,VALID,18.9592,VALID,54,VALID,0.00240385,
2003-09-18, 01:22:00,VALID,918.752,VALID,0,VALID,96.015,VALID,0,VALID,18.9103,VALID,54,VALID,0,
2003-09-18, 01:23:00,VALID,918.739,VALID,0,VALID,96.0481,VALID,0,VALID,18.8815,VALID,54,VALID,0.0184295,
2003-09-18, 01:24:00,VALID,918.722,VALID,0,VALID,96.2274,VALID,0,VALID,18.8395,VALID,87,VALID,0.469572,
2003-09-18, 01:25:00,VALID,918.718,VALID,0,VALID,96.4092,VALID,0,VALID,18.8269,VALID,116,VALID,0.308093,
2003-09-18, 01:26:00,VALID,918.693,VALID,0,VALID,96.5389,VALID,0,VALID,18.7946,VALID,124,VALID,0.231908,
2003-09-18, 01:27:00,VALID,918.684,VALID,0,VALID,96.7958,VALID,0,VALID,18.7946,VALID,124,VALID,0.403045,
2003-09-18, 01:28:00,VALID,918.674,VALID,0,VALID,97.3401,VALID,0,VALID,18.8174,VALID,122,VALID,0.631373,
2003-09-18, 01:29:00,VALID,918.682,VALID,0,VALID,97.7635,VALID,-0.0169808,VALID,18.8817,VALID,119,VALID,0.511218,
2003-09-18, 01:30:00,VALID,918.684,VALID,0,VALID,97.3731,VALID,-0.0169808,VALID,18.9046,VALID,119,VALID,0.129112,
2003-09-18, 01:31:00,VALID,918.699,VALID,0,VALID,96.9052,VALID,0,VALID,18.8658,VALID,119,VALID,0.22496,
2003-09-18, 01:32:00,VALID,918.707,VALID,0,VALID,96.6826,VALID,-0.0169808,VALID,18.8432,VALID,119,VALID,0.140008,
2003-09-18, 01:33:00,VALID,918.721,VALID,0,VALID,96.0634,VALID,-0.0169808,VALID,18.7722,VALID,119,VALID,0.252003,
2003-09-18, 01:34:00,VALID,918.712,VALID,0,VALID,95.8167,VALID,0,VALID,18.6949,VALID,86,VALID,0.413446,
2003-09-18, 01:35:00,VALID,918.708,VALID,0,VALID,96.3317,VALID,0,VALID,18.6657,VALID,67,VALID,0.523838,
2003-09-18, 01:36:00,VALID,918.696,VALID,0,VALID,97.2612,VALID,0,VALID,18.7042,VALID,67,VALID,0.575863,
2003-09-18, 01:37:00,VALID,918.696,VALID,0,VALID,97.4901,VALID,-0.0169808,VALID,18.7496,VALID,67,VALID,0.415865,
2003-09-18, 01:38:00,VALID,918.702,VALID,0,VALID,97.555,VALID,0,VALID,18.7789,VALID,67,VALID,0.365337,
2003-09-18, 01:39:00,VALID,918.694,VALID,0,VALID,97.8423,VALID,0,VALID,18.8045,VALID,67,VALID,0.385216,
2003-09-18, 01:40:00,VALID,918.672,VALID,0,VALID,98.1361,VALID,0,VALID,18.8559,VALID,67,VALID,0.41324,
2003-09-18, 01:41:00,VALID,918.657,VALID,0,VALID,98.2416,VALID,-0.0339617,VALID,18.8981,VALID,67,VALID,0.377404,
2003-09-18, 01:42:00,VALID,918.638,VALID,0,VALID,98.1641,VALID,-0.0169808,VALID,18.9304,VALID,67,VALID,0.0666118,
2003-09-18, 01:43:00,VALID,918.615,VALID,0,VALID,97.9542,VALID,-0.0169808,VALID,18.9406,VALID,67,VALID,0.0136218,
2003-09-18, 01:44:00,VALID,918.589,VALID,0,VALID,97.2282,VALID,0,VALID,18.8589,VALID,67,VALID,0.0135691,
2003-09-18, 01:45:00,VALID,918.573,VALID,0,VALID,96.8263,VALID,-0.0169808,VALID,18.8114,VALID,67,VALID,0.247196,
2003-09-18, 01:46:00,VALID,918.561,VALID,0,VALID,96.9217,VALID,0,VALID,18.7653,VALID,67,VALID,0.232525,
2003-09-18, 01:47:00,VALID,918.541,VALID,0,VALID,96.881,VALID,-0.0169808,VALID,18.7563,VALID,67,VALID,0.1873,
2003-09-18, 01:48:00,VALID,918.528,VALID,0,VALID,96.7449,VALID,0,VALID,18.7175,VALID,67,VALID,0,
2003-09-18, 01:49:00,VALID,918.529,VALID,0,VALID,96.7933,VALID,-0.0169808,VALID,18.6783,VALID,67,VALID,0,
2003-09-18, 01:50:00,VALID,918.519,VALID,0,VALID,97.1252,VALID,-0.0169808,VALID,18.7046,VALID,67,VALID,0,
2003-09-18, 01:51:00,VALID,918.508,VALID,0,VALID,97.2981,VALID,-0.0339617,VALID,18.7109,VALID,67,VALID,0,
2003-09-18, 01:52:00,VALID,918.51,VALID,0,VALID,97.354,VALID,0,VALID,18.724,VALID,67,VALID,0,
2003-09-18, 01:53:00,VALID,918.519,VALID,0,VALID,97.3184,VALID,0,VALID,18.7111,VALID,67,VALID,0,
2003-09-18, 01:54:00,VALID,918.52,VALID,0,VALID,97.4583,VALID,0,VALID,18.724,VALID,67,VALID,0,
2003-09-18, 01:55:00,VALID,918.51,VALID,0,VALID,97.6351,VALID,0,VALID,18.7335,VALID,67,VALID,0,
2003-09-18, 01:56:00,VALID,918.497,VALID,0,VALID,97.8296,VALID,0,VALID,18.7307,VALID,67,VALID,0,
2003-09-18, 01:57:00,VALID,918.501,VALID,0,VALID,97.9441,VALID,-0.0169808,VALID,18.7438,VALID,67,VALID,0,
2003-09-18, 01:58:00,VALID,918.49,VALID,0,VALID,97.8779,VALID,-0.0169808,VALID,18.7242,VALID,67,VALID,0,
2003-09-18, 01:59:00,VALID,918.475,VALID,0,VALID,97.972,VALID,0.0169808,VALID,18.7235,VALID,67,VALID,0,
2003-09-18, 02:00:00,VALID,918.472,VALID,0,VALID,97.9657,VALID,-0.0339617,VALID,18.7302,VALID,67,VALID,0.00123355,
2003-09-18, 02:01:00,VALID,918.457,VALID,0,VALID,97.8055,VALID,-0.0339617,VALID,18.7175,VALID,67,VALID,0.155449,
2003-09-18, 02:02:00,VALID,918.448,VALID,0,VALID,97.7343,VALID,-0.0509425,VALID,18.6793,VALID,67,VALID,0.0489309,
2003-09-18, 02:03:00,VALID,918.446,VALID,0,VALID,97.7877,VALID,0,VALID,18.6661,VALID,67,VALID,0,
2003-09-18, 02:04:00,VALID,918.437,VALID,0,VALID,97.9123,VALID,-0.0509425,VALID,18.6693,VALID,67,VALID,0,
2003-09-18, 02:05:00,VALID,918.431,VALID,0,VALID,97.8996,VALID,-0.0169808,VALID,18.6661,VALID,67,VALID,0,
2003-09-18, 02:06:00,VALID,918.419,VALID,0,VALID,98.0102,VALID,0,VALID,18.6691,VALID,67,VALID,0.229441,
2003-09-18, 02:07:00,VALID,918.391,VALID,0,VALID,97.9987,VALID,0,VALID,18.6728,VALID,67,VALID,0.229567,
2003-09-18, 02:08:00,VALID,918.379,VALID,0,VALID,97.939,VALID,-0.0339617,VALID,18.65,VALID,67,VALID,0.0172697,
2003-09-18, 02:09:00,VALID,918.359,VALID,0,VALID,97.9911,VALID,-0.0679233,VALID,18.6345,VALID,67,VALID,0,
2003-09-18, 02:10:00,VALID,918.355,VALID,0,VALID,97.9835,VALID,-0.0509425,VALID,18.6249,VALID,68,VALID,0.321752,
2003-09-18, 02:11:00,VALID,918.34,VALID,0,VALID,97.7851,VALID,0,VALID,18.5819,VALID,68,VALID,0.163261,
2003-09-18, 02:12:00,VALID,918.325,VALID,0,VALID,97.8233,VALID,0,VALID,18.5529,VALID,68,VALID,0,
2003-09-18, 02:13:00,VALID,918.335,VALID,0,VALID,97.9492,VALID,-0.0509425,VALID,18.5568,VALID,68,VALID,0,
2003-09-18, 02:14:00,VALID,918.336,VALID,0,VALID,97.8665,VALID,0,VALID,18.5301,VALID,68,VALID,0,
2003-09-18, 02:15:00,VALID,918.346,VALID,0,VALID,97.7851,VALID,0,VALID,18.5241,VALID,68,VALID,0,
2003-09-18, 02:16:00,VALID,918.346,VALID,0,VALID,98.0674,VALID,0,VALID,18.5303,VALID,77,VALID,0.410773,
2003-09-18, 02:17:00,VALID,918.358,VALID,0,VALID,98.0814,VALID,-0.0169808,VALID,18.5402,VALID,91,VALID,0.51242,
2003-09-18, 02:18:00,VALID,918.376,VALID,0,VALID,98.1755,VALID,-0.0339617,VALID,18.5305,VALID,103,VALID,0.547903,
2003-09-18, 02:19:00,VALID,918.395,VALID,0,VALID,98.3739,VALID,0,VALID,18.5372,VALID,103,VALID,0.596755,
2003-09-18, 02:20:00,VALID,918.401,VALID,0,VALID,98.7897,VALID,0.0169808,VALID,18.572,VALID,104,VALID,0.67352,
2003-09-18, 02:21:00,VALID,918.424,VALID,0,VALID,99.1801,VALID,-0.0169808,VALID,18.6398,VALID,110,VALID,0.724359,
2003-09-18, 02:22:00,VALID,918.414,VALID,0,VALID,99.1063,VALID,0,VALID,18.6823,VALID,114,VALID,0.263363,
2003-09-18, 02:23:00,VALID,918.395,VALID,0,VALID,98.9207,VALID,-0.0339617,VALID,18.6823,VALID,114,VALID,0.0865385,
2003-09-18, 02:24:00,VALID,918.377,VALID,0,VALID,98.8024,VALID,0,VALID,18.6823,VALID,114,VALID,0.273232,
2003-09-18, 02:25:00,VALID,918.352,VALID,0,VALID,98.7096,VALID,-0.0169808,VALID,18.683,VALID,114,VALID,0.319111,
2003-09-18, 02:26:00,VALID,918.351,VALID,0,VALID,98.6231,VALID,0,VALID,18.6654,VALID,124,VALID,0.424959,
2003-09-18, 02:27:00,VALID,918.334,VALID,0,VALID,98.6333,VALID,0,VALID,18.6527,VALID,154,VALID,0.63762,
2003-09-18, 02:28:00,VALID,918.346,VALID,0,VALID,98.674,VALID,-0.0169808,VALID,18.6433,VALID,152,VALID,0.688117,
2003-09-18, 02:29:00,VALID,918.355,VALID,0,VALID,98.7503,VALID,-0.0339617,VALID,18.6396,VALID,145,VALID,0.616987,
2003-09-18, 02:30:00,VALID,918.363,VALID,0,VALID,98.8431,VALID,-0.0509425,VALID,18.6433,VALID,129,VALID,0.644326,
2003-09-18, 02:31:00,VALID,918.374,VALID,0,VALID,99.0198,VALID,-0.0679233,VALID,18.6599,VALID,129,VALID,0.697917,
2003-09-18, 02:32:00,VALID,918.384,VALID,0,VALID,99.1343,VALID,-0.0679233,VALID,18.6763,VALID,126,VALID,0.583265,
2003-09-18, 02:33:00,VALID,918.388,VALID,0,VALID,99.2119,VALID,-0.0339617,VALID,18.7026,VALID,124,VALID,0.603566,
2003-09-18, 02:34:00,VALID,918.402,VALID,0,VALID,99.2538,VALID,-0.0169808,VALID,18.7148,VALID,127,VALID,0.412829,
2003-09-18, 02:35:00,VALID,918.418,VALID,0,VALID,98.9372,VALID,-0.0339617,VALID,18.6855,VALID,113,VALID,0.305889,
2003-09-18, 02:36:00,VALID,918.442,VALID,0,VALID,98.585,VALID,-0.0509425,VALID,18.6147,VALID,112,VALID,0.413857,
2003-09-18, 02:37:00,VALID,918.443,VALID,0,VALID,98.5837,VALID,-0.0169808,VALID,18.5854,VALID,110,VALID,0.423077,
2003-09-18, 02:38:00,VALID,918.451,VALID,0,VALID,98.6028,VALID,-0.0169808,VALID,18.5856,VALID,108,VALID,0.318257,
2003-09-18, 02:39:00,VALID,918.451,VALID,0,VALID,98.6206,VALID,0,VALID,18.5755,VALID,108,VALID,0.38742,
2003-09-18, 02:40:00,VALID,918.456,VALID,0,VALID,98.8278,VALID,0,VALID,18.5916,VALID,108,VALID,0.349918,
2003-09-18, 02:41:00,VALID,918.461,VALID,0,VALID,98.5837,VALID,-0.0169808,VALID,18.5861,VALID,108,VALID,0.269231,
2003-09-18, 02:42:00,VALID,918.461,VALID,0,VALID,98.3548,VALID,0,VALID,18.5273,VALID,98,VALID,0.422081,
2003-09-18, 02:43:00,VALID,918.461,VALID,0,VALID,98.4642,VALID,-0.0169808,VALID,18.5047,VALID,81,VALID,0.686699,
2003-09-18, 02:44:00,VALID,918.454,VALID,0,VALID,98.4692,VALID,0,VALID,18.5178,VALID,76,VALID,0.753495,
2003-09-18, 02:45:00,VALID,918.453,VALID,0,VALID,98.4349,VALID,-0.0509425,VALID,18.4948,VALID,76,VALID,0.358774,
2003-09-18, 02:46:00,VALID,918.461,VALID,0,VALID,98.3777,VALID,0,VALID,18.4851,VALID,76,VALID,0.304688,
2003-09-18, 02:47:00,VALID,918.46,VALID,0,VALID,98.0267,VALID,-0.0169808,VALID,18.4237,VALID,64,VALID,0.616787,
2003-09-18, 02:48:00,VALID,918.464,VALID,0,VALID,98.1412,VALID,-0.0339617,VALID,18.3949,VALID,55,VALID,0.700247,
2003-09-18, 02:49:00,VALID,918.456,VALID,0,VALID,98.5277,VALID,0,VALID,18.4632,VALID,55,VALID,0.622396,
2003-09-18, 02:50:00,VALID,918.46,VALID,0,VALID,98.0153,VALID,-0.0169808,VALID,18.4143,VALID,47,VALID,0.728413,
2003-09-18, 02:51:00,VALID,918.459,VALID,0,VALID,97.6834,VALID,-0.0509425,VALID,18.3306,VALID,40,VALID,0.810296,
2003-09-18, 02:52:00,VALID,918.453,VALID,0,VALID,97.8017,VALID,-0.0509425,VALID,18.2854,VALID,38,VALID,0.733347,
2003-09-18, 02:53:00,VALID,918.445,VALID,0,VALID,98.1081,VALID,-0.0509425,VALID,18.2727,VALID,38,VALID,0.47496,
2003-09-18, 02:54:00,VALID,918.447,VALID,0,VALID,98.1272,VALID,-0.0509425,VALID,18.2402,VALID,38,VALID,0.284951,
2003-09-18, 02:55:00,VALID,918.458,VALID,0,VALID,98.323,VALID,-0.0849042,VALID,18.2404,VALID,38,VALID,0.13742,
2003-09-18, 02:56:00,VALID,918.449,VALID,0,VALID,98.8545,VALID,-0.0679233,VALID,18.2988,VALID,44,VALID,0.488076,
2003-09-18, 02:57:00,VALID,918.441,VALID,0,VALID,99.2042,VALID,-0.0339617,VALID,18.3721,VALID,72,VALID,0.584736,
2003-09-18, 02:58:00,VALID,918.437,VALID,0,VALID,99.3085,VALID,0.0339617,VALID,18.423,VALID,76,VALID,0.60773,
2003-09-18, 02:59:00,VALID,918.445,VALID,0,VALID,99.311,VALID,0.0339617,VALID,18.4689,VALID,82,VALID,0.635216,
2003-09-18, 03:00:00,VALID,918.438,VALID,0,VALID,99.3238,VALID,0.0509425,VALID,18.4848,VALID,82,VALID,0.819696,
2003-09-18, 03:01:00,VALID,918.441,VALID,0,VALID,99.3835,VALID,0.0339617,VALID,18.5164,VALID,83,VALID,0.896434,
2003-09-18, 03:02:00,VALID,918.448,VALID,0,VALID,99.3556,VALID,0.0849042,VALID,18.5418,VALID,83,VALID,0.882196,
2003-09-18, 03:03:00,VALID,918.447,VALID,0,VALID,99.1343,VALID,0.0679233,VALID,18.5745,VALID,85,VALID,0.788662,
2003-09-18, 03:04:00,VALID,918.444,VALID,0,VALID,98.7706,VALID,0.0509425,VALID,18.552,VALID,96,VALID,0.972451,
2003-09-18, 03:05:00,VALID,918.455,VALID,0,VALID,98.4133,VALID,0.0679233,VALID,18.5261,VALID,100,VALID,0.763221,
2003-09-18, 03:06:00,VALID,918.464,VALID,0,VALID,97.9288,VALID,0.0679233,VALID,18.4842,VALID,93,VALID,0.791118,
2003-09-18, 03:07:00,VALID,918.452,VALID,0,VALID,97.5664,VALID,0.0509425,VALID,18.4325,VALID,96,VALID,0.945513,
2003-09-18, 03:08:00,VALID,918.456,VALID,0,VALID,97.3718,VALID,0.0169808,VALID,18.3811,VALID,100,VALID,0.989309,
2003-09-18, 03:09:00,VALID,918.448,VALID,0,VALID,97.6134,VALID,0.0509425,VALID,18.3523,VALID,115,VALID,1.04828,
2003-09-18, 03:10:00,VALID,918.448,VALID,0,VALID,97.939,VALID,-0.0679233,VALID,18.3596,VALID,125,VALID,1.09827,
2003-09-18, 03:11:00,VALID,918.438,VALID,0,VALID,98.1132,VALID,-0.0679233,VALID,18.3663,VALID,120,VALID,0.86859,
2003-09-18, 03:12:00,VALID,918.432,VALID,0,VALID,98.0534,VALID,0,VALID,18.3495,VALID,121,VALID,0.980263,
2003-09-18, 03:13:00,VALID,918.421,VALID,0,VALID,97.9492,VALID,0,VALID,18.3403,VALID,122,VALID,1.05809,
2003-09-18, 03:14:00,VALID,918.415,VALID,0,VALID,97.8919,VALID,0,VALID,18.3011,VALID,109,VALID,0.93051,
2003-09-18, 03:15:00,VALID,918.409,VALID,0,VALID,97.8156,VALID,0,VALID,18.2852,VALID,112,VALID,0.860777,
2003-09-18, 03:16:00,VALID,918.395,VALID,0,VALID,97.7101,VALID,0,VALID,18.2886,VALID,92,VALID,0.870477,
2003-09-18, 03:17:00,VALID,918.378,VALID,0,VALID,96.9764,VALID,0.0169808,VALID,18.2365,VALID,88,VALID,0.73758,
2003-09-18, 03:18:00,VALID,918.387,VALID,0,VALID,96.9281,VALID,0,VALID,18.1786,VALID,86,VALID,0.792558,
2003-09-18, 03:19:00,VALID,918.383,VALID,0,VALID,96.9789,VALID,0,VALID,18.1396,VALID,85,VALID,0.715545,
2003-09-18, 03:20:00,VALID,918.393,VALID,0,VALID,96.6051,VALID,0,VALID,18.0721,VALID,72,VALID,0.508018,
2003-09-18, 03:21:00,VALID,918.4,VALID,0,VALID,96.2528,VALID,0.0339617,VALID,17.9787,VALID,41,VALID,0.365184,
2003-09-18, 03:22:00,VALID,918.415,VALID,0,VALID,96.0659,VALID,0,VALID,17.8784,VALID,41,VALID,0.435444,
2003-09-18, 03:23:00,VALID,918.426,VALID,0,VALID,96.1269,VALID,0,VALID,17.7846,VALID,41,VALID,0.446114,
2003-09-18, 03:24:00,VALID,918.43,VALID,0,VALID,96.2249,VALID,0.0169808,VALID,17.7075,VALID,41,VALID,0.302632,
2003-09-18, 03:25:00,VALID,918.443,VALID,0,VALID,96.6877,VALID,0,VALID,17.6494,VALID,41,VALID,0.233574,
2003-09-18, 03:26:00,VALID,918.439,VALID,0,VALID,97.0222,VALID,0,VALID,17.6232,VALID,41,VALID,0.18565,
2003-09-18, 03:27:00,VALID,918.431,VALID,0,VALID,97.3477,VALID,0,VALID,17.6307,VALID,41,VALID,0.326122,
2003-09-18, 03:28:00,VALID,918.414,VALID,0,VALID,97.4443,VALID,-0.0169808,VALID,17.5948,VALID,41,VALID,0.233758,
2003-09-18, 03:29:00,VALID,918.418,VALID,0,VALID,97.5677,VALID,0.0509425,VALID,17.5814,VALID,41,VALID,0.036258,
2003-09-18, 03:30:00,VALID,918.406,VALID,0,VALID,97.7571,VALID,-0.0169808,VALID,17.5787,VALID,41,VALID,0,
2003-09-18, 03:31:00,VALID,918.414,VALID,0,VALID,97.8271,VALID,0,VALID,17.5853,VALID,41,VALID,0.0905449,
2003-09-18, 03:32:00,VALID,918.394,VALID,0,VALID,97.8309,VALID,0,VALID,17.5952,VALID,41,VALID,0.0287829,
2003-09-18, 03:33:00,VALID,918.378,VALID,0,VALID,97.869,VALID,0,VALID,17.6012,VALID,41,VALID,0.120393,
2003-09-18, 03:34:00,VALID,918.359,VALID,0,VALID,97.8576,VALID,0,VALID,17.5911,VALID,41,VALID,0.18565,
2003-09-18, 03:35:00,VALID,918.35,VALID,0,VALID,97.7724,VALID,0,VALID,17.6012,VALID,41,VALID,0.123197,
2003-09-18, 03:36:00,VALID,918.344,VALID,0,VALID,97.6936,VALID,0,VALID,17.5918,VALID,41,VALID,0.0289885,
2003-09-18, 03:37:00,VALID,918.341,VALID,0,VALID,97.6173,VALID,0,VALID,17.5687,VALID,41,VALID,0.136819,
2003-09-18, 03:38:00,VALID,918.333,VALID,0,VALID,97.8271,VALID,0,VALID,17.595,VALID,41,VALID,0.206826,
2003-09-18, 03:39:00,VALID,918.335,VALID,0,VALID,98.0369,VALID,0,VALID,17.6471,VALID,41,VALID,0.194912,
2003-09-18, 03:40:00,VALID,918.339,VALID,0,VALID,97.967,VALID,0,VALID,17.6824,VALID,40,VALID,0.297286,